This is the latest recevied weather packets stored in our database for station/object RK6MF-10. If no packets are shown the sender has not sent any weather packets the latest 10 day(s).
| Time | Temp. | Humidity | Pressure | Rain* | Wind** | Luminosity | Snow |
|---|---|---|---|---|---|---|---|
| 1787760307 | 25° C | 36% | 1011.3 hPa | - | - | - | - |
| 1787759407 | 25° C | 35% | 1011.2 hPa | - | - | - | - |
| 1787758507 | 25.56° C | 34% | 1011.2 hPa | - | - | - | - |
| 1787757607 | 26.11° C | 32% | 1011.1 hPa | - | - | - | - |
| 1787756707 | 26.67° C | 31% | 1011.1 hPa | - | - | - | - |
| 1787755807 | 26.67° C | 30% | 1011.2 hPa | - | - | - | - |
| 1787754907 | 27.22° C | 29% | 1011.2 hPa | - | - | - | - |
| 1787754007 | 27.78° C | 27% | 1011.4 hPa | - | - | - | - |
| 1787753106 | 30.56° C | 25% | 1011.3 hPa | - | - | - | - |
| 1787752206 | 31.11° C | 23% | 1011.3 hPa | - | - | - | - |
| 1787751305 | 31.67° C | 23% | 1011.4 hPa | - | - | - | - |
| 1787750407 | 32.22° C | 22% | 1011.5 hPa | - | - | - | - |
| 1787749507 | 31.11° C | 24% | 1011.5 hPa | - | - | - | - |
| 1787748607 | 32.78° C | 22% | 1011.5 hPa | - | - | - | - |
| 1787747707 | 32.78° C | 23% | 1011.5 hPa | - | - | - | - |
| 1787746807 | 32.78° C | 22% | 1011.7 hPa | - | - | - | - |
| 1787745907 | 32.78° C | 23% | 1011.7 hPa | - | - | - | - |
| 1787745007 | 32.22° C | 22% | 1011.8 hPa | - | - | - | - |
| 1787744107 | 33.33° C | 23% | 1012 hPa | - | - | - | - |
| 1787743206 | 32.78° C | 22% | 1012.2 hPa | - | - | - | - |
| 1787742306 | 32.78° C | 22% | 1012.2 hPa | - | - | - | - |
| 1787741406 | 33.33° C | 22% | 1012.6 hPa | - | - | - | - |
| 1787740506 | 32.22° C | 23% | 1012.6 hPa | - | - | - | - |
| 1787739606 | 32.78° C | 22% | 1012.6 hPa | - | - | - | - |
| 1787738706 | 31.67° C | 24% | 1013 hPa | - | - | - | - |
* Rain since midnight (hover to see other rain measurements)
** Current wind speed in m/s (hover to see current wind gust speed)